This is the latest recevied weather packets stored in our database for station/object W5CRT. If no packets are shown the sender has not sent any weather packets the latest 10 day(s).
| Time | Temp. | Humidity | Pressure | Rain* | Wind** | Luminosity | Snow |
|---|---|---|---|---|---|---|---|
| 1777818621 | 20.56° C | 55% | 1019.3 hPa | 0 mm | - | 486 W/m² | - |
| 1777818319 | 20.56° C | 55% | 1019.2 hPa | 0 mm | - | 462 W/m² | - |
| 1777818015 | 20.56° C | 55% | 1019.3 hPa | 0 mm | - | 436 W/m² | - |
| 1777817712 | 20° C | 56% | 1019.2 hPa | 0 mm | - | 415 W/m² | - |
| 1777817409 | 20° C | 54% | 1019.4 hPa | 0 mm | - | 393 W/m² | - |
| 1777817105 | 20° C | 55% | 1019.4 hPa | 0 mm | - | 372 W/m² | - |
| 1777816802 | 20° C | 58% | 1019.2 hPa | 0 mm | - | 349 W/m² | - |
| 1777816500 | 19.44° C | 55% | 1019.1 hPa | 0 mm | - | 329 W/m² | - |
| 1777816197 | 19.44° C | 59% | 1019.2 hPa | 0 mm | - | 311 W/m² | - |
| 1777815895 | 19.44° C | 58% | 1019.1 hPa | 0 mm | - | 292 W/m² | - |
| 1777815592 | 19.44° C | 61% | 1019.1 hPa | 0 mm | - | 272 W/m² | - |
| 1777815289 | 18.89° C | 61% | 1019 hPa | 0 mm | - | 252 W/m² | - |
| 1777814985 | 18.89° C | 62% | 1019.3 hPa | 0 mm | - | 232 W/m² | - |
| 1777814682 | 18.89° C | 62% | 1019.1 hPa | 0 mm | - | 210 W/m² | - |
| 1777814378 | 18.33° C | 63% | 1018.9 hPa | 0 mm | - | 191 W/m² | - |
| 1777814076 | 18.33° C | 64% | 1019.1 hPa | 0 mm | - | 173 W/m² | - |
| 1777813772 | 17.78° C | 64% | 1019 hPa | 0 mm | - | 154 W/m² | - |
| 1777813470 | 17.78° C | 64% | 1018.9 hPa | 0 mm | - | 137 W/m² | - |
| 1777813167 | 17.78° C | 65% | 1019.1 hPa | 0 mm | - | 125 W/m² | - |
| 1777812865 | 17.22° C | 65% | 1018.9 hPa | 0 mm | - | 109 W/m² | - |
| 1777812561 | 17.22° C | 65% | 1018.9 hPa | 0 mm | - | 96 W/m² | - |
| 1777812259 | 17.22° C | 65% | 1018.8 hPa | 0 mm | - | 82 W/m² | - |
| 1777811958 | 16.67° C | 66% | 1019 hPa | 0 mm | - | 73 W/m² | - |
| 1777811656 | 16.67° C | 67% | 1018.7 hPa | 0 mm | - | 65 W/m² | - |
| 1777811356 | 16.67° C | 67% | 1018.8 hPa | 0 mm | - | 58 W/m² | - |
* Rain latest hour (hover to see other rain measurements)
** Current wind speed in m/s (hover to see current wind gust speed)